Columbus AFB, MS

11:16 PM CDT on July 22, 2017 (GMT -0500)
Columbus Air Force Base

Weather History for KCBM - March, 2013

Change the Weather History Date:

Saturday, March 2, 2013

  Actual Average Record
Temperature  
Mean Temperature 36 °F -  
Max Temperature 39 °F 60 °F 81 °F (2012)
Min Temperature 31 °F 40 °F 24 °F (2005)
Degree Days  
Heating Degree Days 30    
Moisture  
Dew Point 25 °F    
Average Humidity 71    
Maximum Humidity 83    
Minimum Humidity 49    
Precipitation  
Precipitation 0.00 in - - ()
Sea Level Pressure  
Sea Level Pressure 30.19 in    
Wind  
Wind Speed 12 mph (NW)    
Max Wind Speed 18 mph    
Max Gust Speed 21 mph    
Visibility 10 miles    
Events Rain , Snow    
Averages and records for this station are not official NWS values.
T = Trace of Precipitation, MM = Missing Value Source: NWS Daily Summary

Daily Weather History Graph

Daily Weather History Graph

Search for Another Location

Airport or City:

Trip Planner

Search our weather history database for the weather conditions in past years. The results will help you decide how hot, cold, wet, or windy it might be!

Date:

Astronomy

Mar. 02, 2013 Rise Set
Actual Time 6:20 AM CST 5:51 PM CST
Civil Twilight 5:55 AM CST 6:16 PM CST
Nautical Twilight 5:26 AM CST 6:45 PM CST
Astronomical Twilight 4:58 AM CST 7:14 PM CST
Moon 11:12 PM CST (3/2) 9:05 AM CST (3/2)
Length of Visible Light 12h 20m
Length of Day
11h 30m
Waning Gibbous, 74% of the Moon is Illuminated
Mar 2
Waning Gibbous
Mar 4
Last Quarter
Mar 11
New
Mar 19
First Quarter
Mar 27
Full

Hourly Weather History & Observations

Time (CST) Temp. Windchill Dew Point Humidity Pressure Visibility Wind Dir Wind Speed Gust Speed Precip Events Conditions
12:58 AM 34.9 °F 27.1 °F 26.6 °F 72% 30.16 in 10.0 mi WNW 10.4 mph - N/A   Overcast
1:58 AM 34.3 °F 27.7 °F 26.8 °F 74% 30.14 in 10.0 mi WNW 8.1 mph - N/A   Overcast
2:58 AM 32.0 °F 26.4 °F 25.9 °F 78% 30.14 in 10.0 mi WNW 5.8 mph - N/A   Overcast
3:58 AM 32.0 °F 24.2 °F 26.6 °F 80% 30.14 in 10.0 mi WNW 9.2 mph - N/A   Overcast
4:38 AM 32.0 °F 23.6 °F 26.6 °F 80% 30.12 in 10.0 mi NW 10.4 mph - N/A   Overcast
4:43 AM 32.0 °F 23.6 °F 26.6 °F 80% 30.12 in 10.0 mi WNW 10.4 mph - N/A   Overcast
4:48 AM 32.0 °F 23.6 °F 26.6 °F 80% 30.13 in 10.0 mi WNW 10.4 mph - N/A   Overcast
4:49 AM 32.0 °F 23.0 °F 26.6 °F 80% 30.13 in 10.0 mi WNW 11.5 mph - N/A   Overcast
5:33 AM 32.0 °F 23.0 °F 26.6 °F 80% 30.13 in 8.0 mi NW 11.5 mph - N/A   Overcast
5:35 AM 32.0 °F 22.5 °F 26.6 °F 80% 30.14 in 8.0 mi NW 12.7 mph - N/A Rain Light Rain
5:55 AM 32.9 °F 25.3 °F 27.0 °F 79% 30.15 in 9.0 mi WNW 9.2 mph - 0.00 in Snow Light Snow
6:15 AM 32.0 °F 24.2 °F 26.6 °F 80% 30.15 in 8.0 mi WNW 9.2 mph - N/A Snow Light Snow
6:32 AM 32.0 °F 24.2 °F 26.6 °F 80% 30.15 in 9.0 mi WNW 9.2 mph - N/A Snow Light Snow
6:55 AM 32.2 °F 24.4 °F 27.7 °F 83% 30.16 in 9.0 mi WNW 9.2 mph - 0.00 in Snow Light Snow
1:56 PM 39.2 °F 32.5 °F 21.2 °F 49% 30.15 in 10.0 mi NNW 10.4 mph - N/A   Overcast
2:47 PM 37.4 °F 28.5 °F 23.0 °F 56% 30.16 in 10.0 mi NW 15.0 mph - N/A   Overcast
2:56 PM 35.6 °F 27.1 °F 23.0 °F 60% 30.16 in 10.0 mi NW 12.7 mph - N/A   Overcast
2:59 PM 35.6 °F 27.1 °F 23.0 °F 60% 30.16 in 10.0 mi NW 12.7 mph - N/A   Overcast
3:58 PM 36.1 °F 26.9 °F 22.5 °F 58% 30.19 in 10.0 mi NW 15.0 mph - 0.00 in   Overcast
4:18 PM 35.6 °F 26.6 °F 24.8 °F 65% 30.17 in 10.0 mi NW 13.8 mph - N/A   Overcast
4:41 PM 35.6 °F 26.6 °F 24.8 °F 65% 30.18 in 10.0 mi NW 13.8 mph - N/A   Overcast
4:58 PM 35.4 °F 26.0 °F 24.8 °F 65% 30.18 in 10.0 mi WNW 15.0 mph - 0.00 in   Overcast
5:20 PM 33.8 °F 23.9 °F 24.8 °F 70% 30.19 in 10.0 mi NW 15.0 mph - N/A   Overcast
5:21 PM 33.8 °F 24.3 °F 24.8 °F 70% 30.19 in 10.0 mi NW 13.8 mph - N/A   Overcast
5:23 PM 33.8 °F 24.3 °F 24.8 °F 70% 30.19 in 10.0 mi NNW 13.8 mph - N/A   Overcast
5:26 PM 33.8 °F 23.5 °F 24.8 °F 70% 30.19 in 10.0 mi NW 16.1 mph - N/A   Overcast
5:28 PM 33.8 °F 22.8 °F 24.8 °F 70% 30.19 in 10.0 mi NW 18.4 mph - N/A   Overcast
5:32 PM 33.8 °F 24.8 °F 24.8 °F 70% 30.19 in 10.0 mi NNW 12.7 mph - N/A Rain Light Rain
5:34 PM 33.8 °F 24.3 °F 24.8 °F 70% 30.20 in 10.0 mi NW 13.8 mph - N/A Rain Light Rain
5:35 PM 33.8 °F 24.8 °F 24.8 °F 70% 30.19 in 10.0 mi NW 12.7 mph - N/A Rain Light Rain
5:36 PM 33.8 °F 24.3 °F 24.8 °F 70% 30.20 in 10.0 mi NW 13.8 mph - N/A Rain Light Rain
5:47 PM 33.8 °F 23.9 °F 24.8 °F 70% 30.20 in 10.0 mi NW 15.0 mph - N/A Rain Light Rain
5:56 PM 33.8 °F 24.8 °F 24.8 °F 70% 30.20 in 10.0 mi NW 12.7 mph - N/A Snow Light Snow
6:17 PM 33.8 °F 24.3 °F 24.8 °F 70% 30.20 in 10.0 mi NW 13.8 mph - N/A   Overcast
6:23 PM 33.8 °F 23.2 °F 24.8 °F 70% 30.21 in 10.0 mi NW 17.3 mph - N/A Snow Light Snow
6:24 PM 33.8 °F 23.2 °F 24.8 °F 70% 30.21 in 10.0 mi NW 17.3 mph - N/A Snow Light Snow
6:28 PM 33.8 °F 23.9 °F 24.8 °F 70% 30.21 in 10.0 mi NW 15.0 mph - N/A Snow Light Snow
6:35 PM 33.8 °F 25.3 °F 24.8 °F 70% 30.21 in 10.0 mi NW 11.5 mph - N/A   Overcast
6:46 PM 33.8 °F 25.3 °F 24.8 °F 70% 30.21 in 10.0 mi NW 11.5 mph - N/A   Overcast
6:47 PM 33.8 °F 25.3 °F 24.8 °F 70% 30.21 in 10.0 mi NW 11.5 mph - N/A Snow Light Snow
6:50 PM 33.8 °F 25.3 °F 24.8 °F 70% 30.21 in 10.0 mi NW 11.5 mph - N/A   Overcast
6:51 PM 33.8 °F 24.8 °F 26.6 °F 75% 30.21 in 10.0 mi NW 12.7 mph - N/A Snow Light Snow
7:16 PM 33.8 °F 23.5 °F 24.8 °F 70% 30.22 in 10.0 mi NW 16.1 mph - N/A Snow Light Snow
7:18 PM 33.8 °F 23.5 °F 24.8 °F 70% 30.22 in 10.0 mi NW 16.1 mph - N/A   Overcast
7:58 PM 33.4 °F 25.4 °F 23.9 °F 68% 30.24 in 10.0 mi NW 10.4 mph - 0.00 in   Overcast
8:58 PM 33.1 °F 24.4 °F 24.3 °F 70% 30.25 in 10.0 mi NW 11.5 mph - N/A   Overcast
9:00 PM 32.0 °F 23.0 °F 24.8 °F 75% 30.23 in 10.0 mi NW 11.5 mph - N/A   Overcast
9:10 PM 32.0 °F 23.0 °F 24.8 °F 75% 30.23 in 10.0 mi NW 11.5 mph - N/A   Overcast
9:26 PM 32.0 °F 21.2 °F 24.8 °F 75% 30.23 in 10.0 mi NW 16.1 mph - N/A   Overcast
9:36 PM 32.0 °F 22.5 °F 24.8 °F 75% 30.23 in 10.0 mi NW 12.7 mph - N/A   Overcast
9:58 PM 33.1 °F 23.4 °F 24.6 °F 71% 30.25 in 10.0 mi NW 13.8 mph - 0.00 in   Overcast
10:13 PM 32.0 °F 22.5 °F 24.8 °F 75% 30.23 in 10.0 mi NW 12.7 mph - N/A   Overcast
10:58 PM 32.7 °F 23.0 °F 22.6 °F 66% 30.24 in 10.0 mi NW 13.8 mph 20.7 mph N/A   Overcast
11:58 PM 31.8 °F 23.3 °F 23.0 °F 70% 30.24 in 10.0 mi NW 10.4 mph - N/A   Overcast